Time,TemperatureF,DewpointF,PressureIn,WindDirection,WindDirectionDegrees,WindSpeedMPH,WindSpeedGustMPH,Humidity,HourlyPrecipIn,Conditions,Clouds,dailyrainin,SolarRadiationWatts/m^2,SoftwareType,DateUTC
2013-05-05 00:00:00,55.1,53.0,29.98,SW,219,1.0,-999.0,92,-99.99,,,0.00,0,weatherlink.com 1.10,2013-05-05 05:00:00,
2013-05-05 00:15:00,54.7,52.0,29.98,SW,219,1.0,-999.0,91,-99.99,,,0.00,0,weatherlink.com 1.10,2013-05-05 05:15:00,
2013-05-05 00:30:00,53.8,51.0,29.98,SW,219,0.0,-999.0,91,-99.99,,,0.00,0,weatherlink.com 1.10,2013-05-05 05:30:00,
2013-05-05 00:45:00,52.5,50.0,29.98,SW,219,0.0,-999.0,91,-99.99,,,0.00,0,weatherlink.com 1.10,2013-05-05 05:45:00,
2013-05-05 01:00:00,52.5,51.0,29.98,SW,219,0.0,-999.0,93,-99.99,,,0.00,0,weatherlink.com 1.10,2013-05-05 06:00:00,
2013-05-05 01:15:00,52.0,50.0,29.98,SW,219,3.0,-999.0,93,-99.99,,,0.00,0,weatherlink.com 1.10,2013-05-05 06:15:00,
2013-05-05 01:30:00,52.2,51.0,29.98,SW,219,2.0,-999.0,94,-99.99,,,0.00,0,weatherlink.com 1.10,2013-05-05 06:30:00,
2013-05-05 01:45:00,51.6,50.0,29.97,SW,219,3.0,-999.0,94,-99.99,,,0.00,0,weatherlink.com 1.10,2013-05-05 06:45:00,
2013-05-05 02:00:00,51.9,50.0,29.96,SW,233,6.0,-999.0,94,-99.99,,,0.00,0,weatherlink.com 1.10,2013-05-05 07:00:00,
2013-05-05 02:15:00,52.0,51.0,29.96,West,263,6.0,-999.0,95,-99.99,,,0.00,0,weatherlink.com 1.10,2013-05-05 07:15:00,
2013-05-05 02:30:00,51.7,50.0,29.96,West,263,4.0,-999.0,95,-99.99,,,0.00,0,weatherlink.com 1.10,2013-05-05 07:30:00,
2013-05-05 02:45:00,51.4,50.0,29.96,WNW,283,4.0,-999.0,95,-99.99,,,0.00,0,weatherlink.com 1.10,2013-05-05 07:45:00,
2013-05-05 03:00:00,51.7,50.0,29.96,WNW,283,3.0,-999.0,95,-99.99,,,0.00,0,weatherlink.com 1.10,2013-05-05 08:00:00,
2013-05-05 03:15:00,52.2,51.0,29.96,WNW,286,3.0,-999.0,96,-99.99,,,0.00,0,weatherlink.com 1.10,2013-05-05 08:15:00,
2013-05-05 03:30:00,52.6,52.0,29.96,NW,317,5.0,-999.0,96,-99.99,,,0.00,0,weatherlink.com 1.10,2013-05-05 08:30:00,
2013-05-05 03:45:00,52.8,52.0,29.95,NW,323,3.0,-999.0,96,-99.99,,,0.00,0,weatherlink.com 1.10,2013-05-05 08:45:00,
2013-05-05 04:00:00,52.8,52.0,29.96,NW,325,5.0,-999.0,96,-99.99,,,0.00,0,weatherlink.com 1.10,2013-05-05 09:00:00,
2013-05-05 04:15:00,53.2,52.0,29.96,NNW,329,6.0,-999.0,96,-99.99,,,0.00,0,weatherlink.com 1.10,2013-05-05 09:15:00,
2013-05-05 04:30:00,52.9,52.0,29.96,NW,325,4.0,-999.0,96,-99.99,,,0.00,0,weatherlink.com 1.10,2013-05-05 09:30:00,
2013-05-05 04:45:00,52.9,52.0,29.96,NNW,329,5.0,-999.0,95,-99.99,,,0.00,0,weatherlink.com 1.10,2013-05-05 09:45:00,
2013-05-05 05:00:00,52.8,52.0,29.96,NNW,333,4.0,-999.0,95,-99.99,,,0.00,0,weatherlink.com 1.10,2013-05-05 10:00:00,
2013-05-05 05:15:00,52.9,52.0,29.96,NNW,339,2.0,-999.0,95,-99.99,,,0.00,0,weatherlink.com 1.10,2013-05-05 10:15:00,
2013-05-05 05:30:00,53.2,52.0,29.96,NNW,333,4.0,-999.0,95,-99.99,,,0.00,0,weatherlink.com 1.10,2013-05-05 10:30:00,
2013-05-05 05:45:00,53.2,52.0,29.96,NNW,329,4.0,-999.0,95,-99.99,,,0.00,0,weatherlink.com 1.10,2013-05-05 10:45:00,
2013-05-05 06:00:00,53.1,52.0,29.96,NW,319,5.0,-999.0,95,-99.99,,,0.00,7,weatherlink.com 1.10,2013-05-05 11:00:00,
2013-05-05 06:15:00,52.9,52.0,29.96,NW,317,4.0,-999.0,95,-99.99,,,0.00,19,weatherlink.com 1.10,2013-05-05 11:15:00,
2013-05-05 06:30:00,52.9,52.0,29.96,NW,317,4.0,-999.0,96,-99.99,,,0.00,39,weatherlink.com 1.10,2013-05-05 11:30:00,
2013-05-05 06:45:00,52.8,52.0,29.97,NW,317,4.0,-999.0,96,-99.99,,,0.00,60,weatherlink.com 1.10,2013-05-05 11:45:00,
2013-05-05 07:00:00,52.9,52.0,29.97,NW,312,4.0,-999.0,96,-99.99,,,0.00,65,weatherlink.com 1.10,2013-05-05 12:00:00,
2013-05-05 07:16:00,53.6,53.0,29.96,NW,311,5.0,-999.0,96,-99.99,,,0.00,81,weatherlink.com 1.10,2013-05-05 12:16:00,
2013-05-05 07:31:00,54.2,53.0,29.97,NW,311,3.0,-999.0,96,-99.99,,,0.00,142,weatherlink.com 1.10,2013-05-05 12:31:00,
2013-05-05 07:46:00,55.1,54.0,29.97,NNW,328,6.0,-999.0,96,-99.99,,,0.00,209,weatherlink.com 1.10,2013-05-05 12:46:00,
2013-05-05 08:01:00,55.6,55.0,29.97,NNW,343,8.0,-999.0,96,-99.99,,,0.00,269,weatherlink.com 1.10,2013-05-05 13:01:00,
2013-05-05 08:16:00,56.6,56.0,29.97,NNW,333,10.0,-999.0,96,-99.99,,,0.00,225,weatherlink.com 1.10,2013-05-05 13:16:00,
2013-05-05 08:31:00,57.5,56.0,29.98,NNE,28,7.0,-999.0,96,-99.99,,,0.00,336,weatherlink.com 1.10,2013-05-05 13:31:00,
2013-05-05 08:46:00,58.3,57.0,29.98,NNE,16,9.0,-999.0,94,-99.99,,,0.00,301,weatherlink.com 1.10,2013-05-05 13:46:00,
2013-05-05 09:01:00,59.3,56.0,29.98,ENE,57,6.0,-999.0,90,-99.99,,,0.00,394,weatherlink.com 1.10,2013-05-05 14:01:00,
2013-05-05 09:16:00,59.3,56.0,29.97,North,5,9.0,-999.0,87,-99.99,,,0.00,290,weatherlink.com 1.10,2013-05-05 14:16:00,
2013-05-05 09:31:00,59.6,56.0,29.97,NNE,28,7.0,-999.0,87,-99.99,,,0.00,274,weatherlink.com 1.10,2013-05-05 14:31:00,
2013-05-05 09:46:00,60.1,56.0,29.97,NE,46,3.0,-999.0,85,-99.99,,,0.00,322,weatherlink.com 1.10,2013-05-05 14:46:00,
2013-05-05 10:01:00,60.4,55.0,29.97,NNE,28,4.0,-999.0,81,-99.99,,,0.00,338,weatherlink.com 1.10,2013-05-05 15:01:00,
2013-05-05 10:16:00,61.0,55.0,29.97,NNE,12,13.0,-999.0,80,-99.99,,,0.00,459,weatherlink.com 1.10,2013-05-05 15:16:00,
2013-05-05 10:31:00,61.5,54.0,29.97,NNE,21,7.0,-999.0,77,-99.99,,,0.00,348,weatherlink.com 1.10,2013-05-05 15:31:00,
2013-05-05 10:46:00,62.1,53.0,29.97,NE,42,2.0,-999.0,73,-99.99,,,0.00,390,weatherlink.com 1.10,2013-05-05 15:46:00,
2013-05-05 11:01:00,62.9,53.0,29.96,NE,46,9.0,-999.0,70,-99.99,,,0.00,921,weatherlink.com 1.10,2013-05-05 16:01:00,
2013-05-05 11:16:00,64.5,53.0,29.96,ENE,59,11.0,-999.0,67,-99.99,,,0.00,721,weatherlink.com 1.10,2013-05-05 16:16:00,
2013-05-05 11:31:00,65.3,53.0,29.96,NE,50,14.0,-999.0,64,-99.99,,,0.00,933,weatherlink.com 1.10,2013-05-05 16:31:00,
2013-05-05 11:46:00,66.0,53.0,29.96,ENE,67,7.0,-999.0,64,-99.99,,,0.00,895,weatherlink.com 1.10,2013-05-05 16:46:00,
2013-05-05 12:01:00,67.1,54.0,29.95,NE,49,14.0,-999.0,63,-99.99,,,0.00,879,weatherlink.com 1.10,2013-05-05 17:01:00,
2013-05-05 12:16:00,67.9,53.0,29.94,NE,39,6.0,-999.0,60,-99.99,,,0.00,868,weatherlink.com 1.10,2013-05-05 17:16:00,
2013-05-05 12:31:00,68.8,54.0,29.93,NNE,12,7.0,-999.0,59,-99.99,,,0.00,886,weatherlink.com 1.10,2013-05-05 17:31:00,
2013-05-05 12:47:00,69.6,54.0,29.93,NNE,29,11.0,-999.0,59,-99.99,,,0.00,726,weatherlink.com 1.10,2013-05-05 17:47:00,
2013-05-05 13:02:00,69.9,53.0,29.92,NE,44,8.0,-999.0,55,-99.99,,,0.00,780,weatherlink.com 1.10,2013-05-05 18:02:00,
2013-05-05 13:17:00,70.6,54.0,29.91,NE,47,4.0,-999.0,55,-99.99,,,0.00,886,weatherlink.com 1.10,2013-05-05 18:17:00,
2013-05-05 13:32:00,71.6,52.0,29.91,ENE,69,11.0,-999.0,51,-99.99,,,0.00,912,weatherlink.com 1.10,2013-05-05 18:32:00,
2013-05-05 13:47:00,71.5,53.0,29.91,ENE,57,13.0,-999.0,52,-99.99,,,0.00,664,weatherlink.com 1.10,2013-05-05 18:47:00,
2013-05-05 14:02:00,72.0,53.0,29.90,NE,51,9.0,-999.0,51,-99.99,,,0.00,664,weatherlink.com 1.10,2013-05-05 19:02:00,
2013-05-05 14:17:00,71.8,51.0,29.90,NE,56,12.0,-999.0,49,-99.99,,,0.00,758,weatherlink.com 1.10,2013-05-05 19:17:00,
2013-05-05 14:32:00,72.1,50.0,29.90,North,9,8.0,-999.0,46,-99.99,,,0.00,854,weatherlink.com 1.10,2013-05-05 19:32:00,
2013-05-05 14:47:00,73.2,49.0,29.89,NE,48,16.0,-999.0,43,-99.99,,,0.00,853,weatherlink.com 1.10,2013-05-05 19:47:00,
2013-05-05 15:02:00,73.7,50.0,29.89,NNE,17,11.0,-999.0,44,-99.99,,,0.00,733,weatherlink.com 1.10,2013-05-05 20:02:00,
2013-05-05 15:17:00,73.9,49.0,29.89,ENE,69,13.0,-999.0,42,-99.99,,,0.00,793,weatherlink.com 1.10,2013-05-05 20:17:00,
2013-05-05 15:32:00,73.0,48.0,29.88,NE,46,8.0,-999.0,41,-99.99,,,0.00,276,weatherlink.com 1.10,2013-05-05 20:32:00,
2013-05-05 15:47:00,72.5,51.0,29.88,ENE,57,11.0,-999.0,47,-99.99,,,0.00,374,weatherlink.com 1.10,2013-05-05 20:47:00,
2013-05-05 16:02:00,73.3,47.0,29.88,NE,51,7.0,-999.0,40,-99.99,,,0.00,269,weatherlink.com 1.10,2013-05-05 21:02:00,
2013-05-05 16:17:00,74.4,44.0,29.88,NE,47,12.0,-999.0,34,-99.99,,,0.00,671,weatherlink.com 1.10,2013-05-05 21:17:00,
2013-05-05 16:32:00,73.2,47.0,29.88,NE,47,10.0,-999.0,39,-99.99,,,0.00,459,weatherlink.com 1.10,2013-05-05 21:32:00,
2013-05-05 16:47:00,74.6,45.0,29.88,ENE,63,13.0,-999.0,35,-99.99,,,0.00,619,weatherlink.com 1.10,2013-05-05 21:47:00,
2013-05-05 17:02:00,73.9,46.0,29.88,ENE,65,13.0,-999.0,37,-99.99,,,0.00,492,weatherlink.com 1.10,2013-05-05 22:02:00,
2013-05-05 17:17:00,73.3,45.0,29.88,ENE,57,17.0,-999.0,36,-99.99,,,0.00,406,weatherlink.com 1.10,2013-05-05 22:17:00,
2013-05-05 17:32:00,73.0,47.0,29.88,NE,52,18.0,-999.0,39,-99.99,,,0.00,388,weatherlink.com 1.10,2013-05-05 22:32:00,
2013-05-05 17:47:00,73.9,46.0,29.88,ENE,61,7.0,-999.0,37,-99.99,,,0.00,429,weatherlink.com 1.10,2013-05-05 22:47:00,
2013-05-05 18:02:00,71.5,48.0,29.89,NE,49,12.0,-999.0,43,-99.99,,,0.00,74,weatherlink.com 1.10,2013-05-05 23:02:00,
2013-05-05 18:17:00,71.1,48.0,29.89,ENE,58,7.0,-999.0,44,-99.99,,,0.00,352,weatherlink.com 1.10,2013-05-05 23:17:00,
2013-05-05 18:32:00,72.7,47.0,29.89,ENE,78,12.0,-999.0,40,-99.99,,,0.00,223,weatherlink.com 1.10,2013-05-05 23:32:00,
2013-05-05 18:47:00,70.4,49.0,29.89,NE,49,10.0,-999.0,46,-99.99,,,0.00,84,weatherlink.com 1.10,2013-05-05 23:47:00,
2013-05-05 19:02:00,68.4,48.0,29.90,ENE,69,5.0,-999.0,49,-99.99,,,0.00,67,weatherlink.com 1.10,2013-05-06 00:02:00,
2013-05-05 19:17:00,66.4,50.0,29.91,ENE,76,4.0,-999.0,55,-99.99,,,0.00,53,weatherlink.com 1.10,2013-05-06 00:17:00,
2013-05-05 19:32:00,65.2,48.0,29.91,ENE,63,4.0,-999.0,55,-99.99,,,0.00,37,weatherlink.com 1.10,2013-05-06 00:32:00,
2013-05-05 19:47:00,63.5,48.0,29.91,ENE,60,4.0,-999.0,58,-99.99,,,0.00,16,weatherlink.com 1.10,2013-05-06 00:47:00,
2013-05-05 20:02:00,62.1,48.0,29.92,ENE,65,4.0,-999.0,61,-99.99,,,0.00,0,weatherlink.com 1.10,2013-05-06 01:02:00,
2013-05-05 20:17:00,61.6,49.0,29.92,ENE,74,4.0,-999.0,63,-99.99,,,0.00,0,weatherlink.com 1.10,2013-05-06 01:17:00,
2013-05-05 20:32:00,60.7,50.0,29.93,East,90,3.0,-999.0,67,-99.99,,,0.00,0,weatherlink.com 1.10,2013-05-06 01:32:00,
2013-05-05 20:47:00,61.3,51.0,29.94,ESE,119,3.0,-999.0,70,-99.99,,,0.00,0,weatherlink.com 1.10,2013-05-06 01:47:00,
2013-05-05 21:02:00,60.2,52.0,29.95,SE,137,5.0,-999.0,73,-99.99,,,0.00,0,weatherlink.com 1.10,2013-05-06 02:02:00,
2013-05-05 21:17:00,58.7,51.0,29.95,ESE,121,0.0,-999.0,76,-99.99,,,0.00,0,weatherlink.com 1.10,2013-05-06 02:17:00,
2013-05-05 21:32:00,58.1,51.0,29.96,ESE,121,0.0,-999.0,77,-99.99,,,0.00,0,weatherlink.com 1.10,2013-05-06 02:32:00,
2013-05-05 21:47:00,57.3,51.0,29.96,ESE,106,2.0,-999.0,79,-99.99,,,0.00,0,weatherlink.com 1.10,2013-05-06 02:47:00,
2013-05-05 22:02:00,57.0,51.0,29.96,East,99,3.0,-999.0,80,-99.99,,,0.00,0,weatherlink.com 1.10,2013-05-06 03:02:00,
2013-05-05 22:17:00,57.3,51.0,29.96,East,95,2.0,-999.0,80,-99.99,,,0.00,0,weatherlink.com 1.10,2013-05-06 03:17:00,
2013-05-05 22:32:00,57.5,51.0,29.95,East,95,0.0,-999.0,80,-99.99,,,0.00,0,weatherlink.com 1.10,2013-05-06 03:32:00,
2013-05-05 22:47:00,57.8,51.0,29.96,East,95,0.0,-999.0,79,-99.99,,,0.00,0,weatherlink.com 1.10,2013-05-06 03:47:00,
2013-05-05 23:02:00,57.5,51.0,29.96,East,95,0.0,-999.0,80,-99.99,,,0.00,0,weatherlink.com 1.10,2013-05-06 04:02:00,
2013-05-05 23:17:00,57.5,51.0,29.95,East,95,0.0,-999.0,80,-99.99,,,0.00,0,weatherlink.com 1.10,2013-05-06 04:17:00,
2013-05-05 23:32:00,57.6,52.0,29.95,East,95,0.0,-999.0,80,-99.99,,,0.00,0,weatherlink.com 1.10,2013-05-06 04:32:00,
2013-05-05 23:47:00,57.6,52.0,29.95,East,95,0.0,-999.0,81,-99.99,,,0.00,0,weatherlink.com 1.10,2013-05-06 04:47:00,